TimeEST,TemperatureF,Dew PointF,Humidity,Sea Level PressureIn,VisibilityMPH,Wind Direction,Wind SpeedMPH,Gust SpeedMPH,PrecipitationIn,Events,Conditions,WindDirDegrees,DateUTC
12:11 AM,75.2,68.0,78,30.11,10.0,SE,15.0,-,N/A,,Scattered Clouds,130,2013-02-12 05:11:00
12:42 AM,75.2,68.0,78,30.11,10.0,SE,12.7,-,N/A,,Mostly Cloudy,140,2013-02-12 05:42:00
12:49 AM,75.2,69.8,83,30.11,10.0,SE,11.5,-,N/A,,Mostly Cloudy,130,2013-02-12 05:49:00
12:53 AM,75.9,68.0,76,30.11,10.0,SE,12.7,-,N/A,,Mostly Cloudy,130,2013-02-12 05:53:00
1:53 AM,75.9,68.0,76,30.10,10.0,SE,11.5,-,N/A,,Mostly Cloudy,140,2013-02-12 06:53:00
2:25 AM,75.2,69.8,83,30.09,10.0,SE,9.2,-,N/A,,Mostly Cloudy,130,2013-02-12 07:25:00
2:53 AM,75.9,69.1,79,30.09,10.0,SE,10.4,-,N/A,,Mostly Cloudy,130,2013-02-12 07:53:00
3:36 AM,75.2,69.8,83,30.08,10.0,SE,9.2,-,N/A,,Mostly Cloudy,130,2013-02-12 08:36:00
3:44 AM,75.2,69.8,83,30.08,10.0,SE,9.2,-,N/A,,Mostly Cloudy,130,2013-02-12 08:44:00
3:53 AM,75.9,69.1,79,30.08,10.0,SE,10.4,-,N/A,,Mostly Cloudy,140,2013-02-12 08:53:00
4:53 AM,75.9,69.1,79,30.08,10.0,SE,9.2,-,N/A,,Clear,130,2013-02-12 09:53:00
5:53 AM,75.0,69.1,82,30.08,10.0,SE,9.2,-,N/A,,Clear,130,2013-02-12 10:53:00
6:26 AM,75.2,69.8,83,30.08,10.0,SSE,10.4,-,0.00,,Overcast,150,2013-02-12 11:26:00
6:53 AM,75.9,70.0,82,30.09,10.0,SSE,9.2,-,0.00,,Overcast,160,2013-02-12 11:53:00
7:18 AM,75.2,69.8,83,30.08,9.0,SSE,13.8,-,N/A,,Scattered Clouds,160,2013-02-12 12:18:00
7:53 AM,75.9,70.0,82,30.09,10.0,SSE,10.4,-,N/A,,Clear,150,2013-02-12 12:53:00
8:53 AM,78.1,70.0,76,30.09,10.0,SSE,15.0,-,N/A,,Clear,160,2013-02-12 13:53:00
9:53 AM,78.1,70.0,76,30.11,10.0,SSE,16.1,-,N/A,,Clear,160,2013-02-12 14:53:00
10:53 AM,79.0,70.0,74,30.11,10.0,SSE,16.1,-,N/A,,Clear,160,2013-02-12 15:53:00
11:53 AM,79.0,70.0,74,30.10,10.0,SSE,13.8,-,N/A,,Clear,160,2013-02-12 16:53:00
12:53 PM,80.1,70.0,71,30.09,10.0,SSE,12.7,-,N/A,,Clear,160,2013-02-12 17:53:00
1:53 PM,80.1,70.0,71,30.06,10.0,SSE,11.5,-,N/A,,Clear,160,2013-02-12 18:53:00
2:53 PM,80.1,71.1,74,30.04,10.0,SSE,10.4,-,N/A,,Clear,150,2013-02-12 19:53:00
3:53 PM,80.1,71.1,74,30.02,10.0,SE,9.2,-,N/A,,Clear,140,2013-02-12 20:53:00
4:53 PM,79.0,70.0,74,30.00,10.0,SE,8.1,-,N/A,,Clear,140,2013-02-12 21:53:00
5:53 PM,78.1,70.0,76,29.99,10.0,SE,9.2,-,N/A,,Clear,130,2013-02-12 22:53:00
6:53 PM,77.0,70.0,79,29.98,10.0,SE,9.2,-,N/A,,Clear,130,2013-02-12 23:53:00
7:53 PM,77.0,71.1,82,30.00,10.0,ESE,8.1,-,N/A,,Clear,110,2013-02-13 00:53:00
8:53 PM,77.0,72.0,84,30.00,10.0,SE,8.1,-,N/A,,Clear,130,2013-02-13 01:53:00
9:53 PM,77.0,72.0,84,30.01,10.0,SE,9.2,-,N/A,,Mostly Cloudy,140,2013-02-13 02:53:00
10:53 PM,77.0,72.0,84,30.03,10.0,SE,6.9,-,N/A,,Mostly Cloudy,140,2013-02-13 03:53:00
11:53 PM,77.0,72.0,84,30.03,10.0,SE,6.9,-,N/A,,Scattered Clouds,140,2013-02-13 04:53:00